TimeEEST,TemperatureF,Dew PointF,Humidity,Sea Level PressureIn,VisibilityMPH,Wind Direction,Wind SpeedMPH,Gust SpeedMPH,PrecipitationIn,Events,Conditions,WindDirDegrees,DateUTC
12:50 AM,48.2,41.0,76,30.24,6.2,SE,3.5,-,N/A,,Scattered Clouds,140,2012-10-07 21:50:00
1:50 AM,44.6,41.0,87,30.24,6.2,WNW,6.9,-,N/A,,Scattered Clouds,290,2012-10-07 22:50:00
3:00 AM,43,39,79,,6,SE,5.8,,,,Partly Cloudy,130,2012-10-08 00:00:00
3:50 AM,42.8,37.4,81,30.21,6.2,SE,2.3,-,N/A,,Scattered Clouds,130,2012-10-08 00:50:00
4:50 AM,39.2,39.2,100,30.21,6.2,SSW,2.3,-,N/A,,Scattered Clouds,210,2012-10-08 01:50:00
5:50 AM,42.8,39.2,87,30.24,6.2,West,3.5,-,N/A,,Scattered Clouds,270,2012-10-08 02:50:00
6:50 AM,42.8,41.0,93,30.21,6.2,Calm,Calm,-,N/A,,Partly Cloudy,0,2012-10-08 03:50:00
7:50 AM,46.4,41.0,81,30.21,6.2,South,1.2,-,N/A,,Scattered Clouds,190,2012-10-08 04:50:00
8:50 AM,50.0,41.0,71,30.21,6.2,Variable,1.2,-,N/A,,Mostly Cloudy,0,2012-10-08 05:50:00
9:00 AM,50,41,63,,6,NNW,1.2,,,,Mostly Cloudy,330,2012-10-08 06:00:00
9:50 AM,53.6,42.8,67,30.21,6.2,NNW,5.8,-,N/A,,Mostly Cloudy,330,2012-10-08 06:50:00
10:50 AM,55.4,42.8,63,30.18,6.2,ENE,6.9,-,N/A,,Mostly Cloudy,60,2012-10-08 07:50:00
11:50 AM,60.8,42.8,52,30.15,6.2,NE,6.9,-,N/A,,Partly Cloudy,50,2012-10-08 08:50:00
12:50 PM,62.6,42.8,48,30.12,6.2,Variable,3.5,-,N/A,,Mostly Cloudy,0,2012-10-08 09:50:00
1:50 PM,66.2,37.4,35,30.06,6.2,SW,11.5,-,N/A,,Scattered Clouds,230,2012-10-08 10:50:00
2:50 PM,64.4,41.0,42,30.04,6.2,SE,20.7,33.4,N/A,,Scattered Clouds,140,2012-10-08 11:50:00
3:00 PM,64,40,30,,6,SE,20.7,,,,Mostly Cloudy,140,2012-10-08 12:00:00
3:50 PM,57.2,41.0,55,30.04,6.2,SSE,17.3,-,N/A,Rain-Thunderstorm,Light Thunderstorms and Rain,160,2012-10-08 12:50:00
4:50 PM,57.2,41.0,55,30.04,6.2,SE,18.4,-,N/A,,Mostly Cloudy,140,2012-10-08 13:50:00
5:50 PM,57.2,41.0,55,30.01,6.2,SSE,20.7,-,N/A,,Mostly Cloudy,150,2012-10-08 14:50:00
6:50 PM,57.2,41.0,55,30.04,6.2,West,8.1,-,N/A,Thunderstorm,Thunderstorm,270,2012-10-08 15:50:00
7:50 PM,55.4,42.8,63,30.06,6.2,SW,15.0,-,N/A,Thunderstorm,Thunderstorm,220,2012-10-08 16:50:00
8:50 PM,51.8,41.0,67,30.04,6.2,South,25.3,-,N/A,Rain-Thunderstorm,Light Thunderstorms and Rain,190,2012-10-08 17:50:00
9:00 PM,52,40,54,,6,South,25.3,,,Rain-Thunderstorm,Thunderstorms and Rain,190,2012-10-08 18:00:00
9:50 PM,51.8,41.0,67,30.04,6.2,SW,15.0,26.5,N/A,,Mostly Cloudy,230,2012-10-08 18:50:00
10:50 PM,50.0,42.8,76,30.01,6.2,NW,11.5,-,N/A,,Mostly Cloudy,320,2012-10-08 19:50:00
11:50 PM,48.2,42.8,82,30.04,6.2,East,4.6,-,N/A,,Mostly Cloudy,80,2012-10-08 20:50:00